Location: Poughquag
(41.6090°N, 73.6820°W)
Time: 17:00:19
(UTC-04:00)

deb Explorer IX - Visible Passes

Search period start: 15 July 2024 00:00
Search period end: 25 July 2024 00:00
Orbit: 511 x 879 km, 38.7° (Epoch: 15 July)

Date Brightness Start Highest point End Pass type
(mag) Time Alt. Az. Time Alt. Az. Time Alt. Az.
15 Jul ? 03:05:53 26° SE 03:05:53 26° SE 03:07:52 10° ESE visible
15 Jul ? 04:44:41 10° WSW 04:47:13 16° SSW 04:49:39 10° S visible
15 Jul ? 22:29:27 10° SW 22:32:35 25° S 22:32:35 25° S visible
16 Jul ? 03:47:01 18° SSE 03:47:01 18° SSE 03:48:33 10° SSE visible
16 Jul ? 21:27:37 10° SSW 21:31:46 21° SSE 21:34:57 13° ESE visible
16 Jul ? 23:10:16 10° WSW 23:13:40 34° SW 23:13:40 34° SW visible
17 Jul ? 22:07:48 10° SW 22:12:58 39° SSE 22:15:24 24° ESE visible
17 Jul ? 23:51:36 10° WSW 23:54:04 26° WSW 23:54:04 26° WSW visible
18 Jul ? 21:05:32 10° SSW 21:10:27 29° SSE 21:15:02 10° E visible
18 Jul ? 22:48:50 10° WSW 22:54:16 57° S 22:55:15 48° SE visible
19 Jul ? 00:33:04 10° W 00:33:53 14° W 00:33:53 14° W visible
19 Jul ? 21:46:07 10° WSW 21:51:38 48° SSE 21:56:05 13° E visible
19 Jul ? 23:30:11 10° W 23:34:42 54° SW 23:34:42 54° SW visible
20 Jul ? 22:27:15 10° WSW 22:32:52 63° S 22:35:16 32° ESE visible
21 Jul ? 00:11:36 10° W 00:13:52 24° W 00:13:52 24° W visible
21 Jul ? 21:24:20 10° WSW 21:30:05 57° SSE 21:35:21 10° E visible
21 Jul ? 23:08:34 10° W 23:14:07 63° S 23:14:15 63° S visible
22 Jul ? 22:05:30 10° W 22:11:16 66° S 22:14:30 24° ESE visible
22 Jul ? 23:49:55 10° W 23:53:05 31° WSW 23:53:05 31° WSW visible
23 Jul ? 21:02:26 10° WSW 21:08:20 64° S 21:13:47 10° E visible
23 Jul ? 22:46:44 10° W 22:52:23 59° S 22:53:14 52° SSE visible
24 Jul ? 00:31:29 10° W 00:31:49 11° W 00:31:49 11° W visible
24 Jul ? 21:43:34 10° W 21:49:25 66° S 21:53:18 19° ESE visible
24 Jul ? 23:28:03 10° W 23:31:53 33° WSW 23:31:53 33° WSW visible
